Total_Precipitation_Accumulation
0.15 0.14 0.14 0.14 0.13 0.11 0.10 0.11 0.11 0.09 0.09 0.09 0.08 0.07 0.07 0.06 0.04 0.05 0.05 0.05 0.04 0.03 0.04 0.04 0.04 0.03 0.13 0.06 0.01 0.16 0.08 0.06 0.02 0.00 0.00 0.00 0.00 0.00 0.00 0.00 0.00 0.00 0.00 0.00 0.00 0.00 0.00 0.00 0.00 0.00 0.00 0.00 0.00 0.00 0.00 0.00 0.00 0.00 0.01 0.02 0.11 0.19 0.22 0.21 0.28 0.21 0.44 0.59 0.38 0.77 0.58 0.56 0.46 0.54 0.77 0.60 0.88 0.67 0.62 0.79 0.63 0.59 0.67 0.81 1.05 2.24 2.27 1.91
0.15 0.14 0.15 0.14 0.13 0.12 0.11 0.10 0.09 0.11 0.08 0.08 0.10 0.08 0.08 0.06 0.06 0.03 0.04 0.03 0.05 0.03 0.03 0.06 0.02 0.02 0.09 0.08 0.03 0.14 0.14 0.05 0.01 0.00 0.00 0.00 0.00 0.00 0.00 0.00 0.00 0.00 0.00 0.00 0.00 0.00 0.00 0.00 0.00 0.00 0.00 0.00 0.00 0.00 0.00 0.00 0.00 0.01 0.02 0.14 0.23 0.19 0.16 0.07 0.19 0.09 0.27 0.41 0.42 0.18 0.53 0.64 0.67 0.37 0.79 0.53 0.59 0.78 0.56 0.80 0.56 0.78 0.89 0.91 1.25 1.98 1.86 2.05
0.13 0.14 0.15 0.13 0.14 0.12 0.11 0.09 0.08 0.09 0.08 0.07 0.07 0.09 0.07 0.05 0.05 0.05 0.03 0.04 0.04 0.03 0.03 0.03 0.05 0.03 0.02 0.09 0.07 0.14 0.03 0.02 0.02 0.00 0.00 0.00 0.00 0.00 0.00 0.00 0.00 0.00 0.00 0.00 0.00 0.00 0.00 0.00 0.00 0.00 0.00 0.00 0.00 0.00 0.00 0.00 0.01 0.01 0.09 0.35 0.45 0.28 0.23 0.14 0.21 0.27 0.34 0.37 0.27 0.22 0.35 0.72 0.80 0.71 0.58 0.89 0.52 0.78 0.72 0.95 0.73 1.09 1.24 1.11 1.15 2.10 1.65 1.59
0.10 0.12 0.11 0.12 0.11 0.10 0.09 0.08 0.09 0.07 0.08 0.09 0.07 0.07 0.06 0.06 0.04 0.05 0.05 0.04 0.02 0.02 0.03 0.03 0.08 0.03 0.05 0.07 0.05 0.07 0.01 0.02 0.00 0.00 0.00 0.00 0.00 0.00 0.00 0.00 0.00 0.00 0.00 0.00 0.00 0.00 0.00 0.00 0.00 0.00 0.00 0.00 0.00 0.00 0.00 0.01 0.07 0.01 0.19 0.41 0.27 0.12 0.25 0.18 0.13 0.10 0.15 0.21 0.36 0.37 0.78 0.33 0.72 0.65 0.90 0.53 0.74 0.55 0.72 0.66 0.95 1.02 1.05 1.25 1.44 1.90 2.10 2.29
0.11 0.11 0.13 0.10 0.10 0.10 0.10 0.10 0.09 0.10 0.10 0.09 0.09 0.09 0.08 0.05 0.06 0.04 0.05 0.03 0.04 0.03 0.04 0.03 0.07 0.05 0.03 0.06 0.05 0.06 0.03 0.00 0.00 0.00 0.00 0.00 0.00 0.00 0.00 0.00 0.00 0.00 0.00 0.00 0.00 0.00 0.00 0.00 0.00 0.00 0.00 0.00 0.00 0.00 0.01 0.02 0.08 0.13 0.12 0.15 0.14 0.26 0.15 0.24 0.14 0.15 0.17 0.33 0.19 0.74 0.66 0.45 0.79 0.39 0.95 1.20 0.64 0.96 1.02 1.02 0.95 1.01 1.18 1.05 1.11 1.61 1.48 1.56
0.09 0.12 0.12 0.11 0.09 0.10 0.10 0.08 0.08 0.06 0.08 0.08 0.09 0.08 0.09 0.07 0.06 0.06 0.05 0.06 0.05 0.05 0.03 0.03 0.03 0.03 0.05 0.03 0.04 0.02 0.02 0.04 0.00 0.00 0.00 0.00 0.00 0.00 0.00 0.00 0.00 0.00 0.00 0.00 0.00 0.00 0.00 0.00 0.00 0.00 0.01 0.02 0.02 0.04 0.02 0.01 0.02 0.20 0.09 0.08 0.25 0.19 0.18 0.13 0.08 0.10 0.11 0.30 0.23 0.38 0.81 0.68 0.89 0.65 0.58 0.62 1.11 1.48 1.10 1.16 1.09 1.35 0.87 0.91 0.74 0.99 1.22 1.45
0.11 0.12 0.09 0.09 0.09 0.08 0.07 0.09 0.07 0.08 0.09 0.07 0.08 0.06 0.06 0.09 0.06 0.05 0.05 0.06 0.05 0.05 0.02 0.03 0.03 0.02 0.02 0.03 0.03 0.01 0.00 0.01 0.00 0.00 0.00 0.00 0.00 0.00 0.00 0.00 0.00 0.00 0.00 0.00 0.00 0.00 0.00 0.00 0.00 0.00 0.00 0.02 0.02 0.03 0.05 0.04 0.12 0.15 0.10 0.30 0.34 0.11 0.09 0.06 0.23 0.15 0.30 0.44 0.41 0.42 0.96 0.96 1.08 0.76 1.35 0.87 1.08 1.45 1.03 1.36 0.73 0.79 0.91 0.82 1.13 1.03 1.04 1.29
0.10 0.08 0.07 0.07 0.06 0.11 0.10 0.08 0.09 0.07 0.08 0.08 0.07 0.07 0.07 0.08 0.10 0.08 0.05 0.05 0.06 0.04 0.04 0.04 0.05 0.03 0.01 0.03 0.03 0.03 0.00 0.00 0.00 0.00 0.00 0.00 0.00 0.00 0.00 0.00 0.00 0.00 0.00 0.00 0.00 0.00 0.00 0.00 0.00 0.00 0.01 0.06 0.02 0.05 0.02 0.08 0.06 0.21 0.39 0.36 0.11 0.10 0.10 0.23 0.21 0.40 0.76 0.42 0.24 0.36 0.50 0.88 0.71 1.05 1.73 1.14 1.37 1.44 1.85 1.26 1.02 1.08 1.26 1.26 1.63 1.60 1.65 1.76
0.11 0.07 0.07 0.06 0.06 0.05 0.07 0.09 0.06 0.06 0.06 0.05 0.06 0.07 0.09 0.06 0.09 0.05 0.04 0.07 0.05 0.05 0.04 0.04 0.03 0.05 0.03 0.06 0.02 0.00 0.00 0.00 0.00 0.00 0.00 0.00 0.00 0.00 0.00 0.00 0.00 0.00 0.00 0.00 0.00 0.00 0.00 0.00 0.00 0.00 0.03 0.02 0.01 0.03 0.03 0.15 0.39 0.28 0.32 0.70 0.61 0.21 0.29 0.35 0.25 0.38 0.85 0.36 1.02 0.68 0.42 0.68 1.15 1.10 1.43 1.66 1.66 2.33 1.93 1.35 1.87 1.27 2.40 2.17 1.93 1.60 1.72 1.58
0.09 0.10 0.06 0.06 0.05 0.05 0.06 0.06 0.06 0.06 0.05 0.06 0.06 0.06 0.09 0.08 0.06 0.10 0.06 0.05 0.06 0.07 0.05 0.03 0.05 0.04 0.02 0.01 0.00 0.01 0.00 0.00 0.00 0.00 0.00 0.00 0.00 0.00 0.00 0.00 0.00 0.00 0.00 0.00 0.00 0.00 0.00 0.00 0.00 0.00 0.00 0.00 0.00 0.07 0.10 0.15 0.24 0.18 0.26 0.54 0.36 0.16 0.48 0.36 0.37 0.53 0.58 0.47 0.74 0.99 0.48 1.02 0.71 1.33 1.45 3.32 1.76 2.30 1.91 1.56 1.84 1.83 1.62 1.71 1.22 1.39 1.61 1.44
0.17 0.09 0.10 0.08 0.05 0.04 0.05 0.04 0.05 0.06 0.06 0.04 0.07 0.09 0.06 0.05 0.09 0.08 0.10 0.06 0.09 0.05 0.03 0.03 0.05 0.03 0.03 0.01 0.01 0.00 0.00 0.00 0.00 0.00 0.00 0.00 0.00 0.00 0.00 0.00 0.00 0.00 0.00 0.00 0.00 0.00 0.00 0.00 0.00 0.00 0.00 0.04 0.02 0.03 0.02 0.06 0.06 0.08 0.29 0.40 0.13 0.14 0.49 0.38 0.28 0.85 1.63 0.76 1.39 1.95 0.63 0.45 0.37 0.69 1.16 2.30 2.21 2.57 1.83 1.57 1.81 2.02 1.76 1.69 1.59 1.25 1.37 1.80
0.09 0.09 0.17 0.11 0.09 0.05 0.06 0.05 0.06 0.06 0.05 0.07 0.07 0.06 0.10 0.06 0.08 0.06 0.09 0.08 0.06 0.04 0.03 0.01 0.02 0.09 0.01 0.11 0.04 0.00 0.00 0.00 0.00 0.00 0.00 0.00 0.00 0.00 0.00 0.00 0.00 0.00 0.00 0.00 0.00 0.00 0.00 0.00 0.00 0.00 0.17 0.00 0.12 0.05 0.04 0.04 0.25 0.05 0.63 0.33 0.24 0.55 0.23 0.56 0.63 0.67 0.84 0.33 1.14 1.24 0.84 0.51 0.75 1.40 1.37 1.25 1.55 2.24 2.11 1.72 1.39 1.62 1.39 1.21 1.64 1.10 1.07 1.11
0.09 0.11 0.10 0.09 0.07 0.12 0.07 0.05 0.07 0.06 0.05 0.06 0.08 0.08 0.07 0.10 0.06 0.11 0.06 0.04 0.03 0.02 0.01 0.02 0.02 0.07 0.10 0.04 0.00 0.00 0.00 0.00 0.00 0.00 0.00 0.00 0.00 0.00 0.00 0.00 0.00 0.00 0.00 0.00 0.00 0.00 0.00 0.00 0.00 0.00 0.00 0.01 0.02 0.32 0.04 0.07 0.07 0.27 0.64 0.50 0.43 0.39 0.45 0.30 0.33 0.68 0.57 0.61 0.71 0.59 1.08 0.74 0.74 1.06 1.25 1.97 1.84 1.63 1.23 1.14 1.33 1.02 1.01 1.05 1.18 1.20 1.68 1.79
0.11 0.10 0.11 0.11 0.10 0.08 0.06 0.11 0.06 0.07 0.07 0.06 0.06 0.10 0.07 0.06 0.11 0.09 0.06 0.05 0.05 0.04 0.01 0.02 0.09 0.03 0.12 0.01 0.00 0.00 0.00 0.00 0.00 0.00 0.00 0.00 0.00 0.00 0.00 0.00 0.00 0.00 0.00 0.00 0.00 0.00 0.00 0.00 0.00 0.00 0.00 0.02 0.05 0.04 0.22 0.26 0.11 0.80 0.45 0.65 0.94 0.68 0.40 0.20 0.45 0.36 0.46 0.33 0.59 0.42 0.54 0.97 0.98 1.51 1.40 2.46 1.90 1.77 1.14 1.11 1.39 1.27 1.18 1.20 1.50 1.62 1.18 1.41
0.20 0.11 0.12 0.09 0.08 0.10 0.11 0.06 0.04 0.04 0.05 0.05 0.07 0.07 0.08 0.14 0.06 0.05 0.08 0.05 0.06 0.03 0.03 0.07 0.04 0.04 0.06 0.00 0.00 0.00 0.00 0.00 0.00 0.00 0.00 0.00 0.00 0.00 0.00 0.00 0.00 0.00 0.00 0.00 0.00 0.00 0.00 0.00 0.00 0.02 0.04 0.03 0.04 0.17 0.24 0.50 0.25 0.40 0.74 0.47 0.24 0.97 0.28 0.55 0.39 0.21 0.47 0.28 0.49 0.62 0.99 0.68 0.50 0.64 1.13 1.23 1.63 1.90 1.81 1.92 2.57 1.49 1.15 1.74 2.06 1.65 1.93 2.28
0.23 0.14 0.12 0.20 0.09 0.07 0.05 0.08 0.06 0.06 0.03 0.06 0.05 0.04 0.08 0.06 0.06 0.07 0.07 0.05 0.07 0.04 0.08 0.07 0.02 0.01 0.01 0.00 0.00 0.00 0.00 0.00 0.00 0.00 0.00 0.00 0.00 0.00 0.00 0.00 0.00 0.00 0.00 0.00 0.00 0.00 0.00 0.00 0.01 0.02 0.05 0.01 0.11 0.32 0.36 0.38 0.30 0.13 0.68 0.17 0.51 0.26 0.24 0.47 0.36 0.21 0.20 0.17 0.48 0.85 0.46 0.44 0.82 0.57 1.04 1.46 1.65 1.89 1.55 1.94 1.70 1.38 1.43 1.75 1.76 1.66 2.12 1.48
0.24 0.14 0.10 0.10 0.12 0.10 0.07 0.08 0.07 0.12 0.07 0.03 0.04 0.06 0.15 0.08 0.12 0.04 0.06 0.08 0.08 0.05 0.06 0.02 0.02 0.03 0.19 0.00 0.00 0.00 0.00 0.00 0.00 0.00 0.00 0.00 0.00 0.00 0.00 0.00 0.00 0.00 0.00 0.00 0.00 0.00 0.00 0.00 0.00 0.01 0.05 0.28 0.07 0.19 0.62 0.45 0.33 0.40 0.39 0.51 0.56 0.52 0.25 0.86 0.15 0.22 0.18 0.31 0.38 0.41 0.51 0.74 0.52 0.69 0.91 1.82 2.12 1.52 1.44 2.16 2.29 2.28 1.98 1.30 1.83 1.49 1.24 1.71
0.18 0.15 0.15 0.15 0.07 0.08 0.08 0.09 0.09 0.13 0.05 0.04 0.06 0.04 0.11 0.08 0.09 0.07 0.09 0.09 0.05 0.03 0.03 0.03 0.01 0.02 0.00 0.00 0.00 0.00 0.00 0.00 0.00 0.00 0.00 0.00 0.00 0.00 0.00 0.00 0.00 0.00 0.00 0.00 0.00 0.00 0.00 0.08 0.00 0.30 0.21 0.34 0.13 0.40 0.19 0.50 0.35 0.48 0.70 0.39 0.34 0.21 0.35 0.32 0.73 0.50 0.13 0.14 0.29 0.20 0.30 0.34 0.61 0.52 1.28 1.60 1.15 1.67 1.86 1.77 1.52 1.32 1.00 0.77 0.66 0.69 1.10 1.01
0.27 0.19 0.13 0.09 0.09 0.20 0.12 0.09 0.10 0.05 0.20 0.06 0.04 0.09 0.08 0.10 0.07 0.08 0.07 0.14 0.10 0.18 0.39 0.10 0.16 0.16 0.05 0.00 0.00 0.00 0.00 0.00 0.00 0.00 0.00 0.00 0.00 0.00 0.00 0.00 0.00 0.00 0.01 0.07 0.03 0.03 0.00 0.05 0.08 0.23 0.43 0.18 0.17 0.21 0.15 0.14 0.16 0.23 0.37 0.30 0.50 0.61 0.23 0.30 0.35 0.13 0.38 0.29 0.37 0.20 0.41 0.30 0.29 0.42 0.91 2.63 2.02 1.23 1.33 1.21 1.42 0.60 0.68 0.81 0.88 1.16 0.97 0.94
0.15 0.19 0.17 0.17 0.22 0.12 0.21 0.11 0.08 0.12 0.09 0.12 0.14 0.10 0.11 0.19 0.13 0.13 0.08 0.10 0.07 0.00 0.00 0.00 0.00 0.00 0.00 0.00 0.00 0.00 0.00 0.00 0.00 0.00 0.00 0.00 0.00 0.00 0.00 0.00 0.00 0.00 0.04 0.24 0.14 0.02 0.02 0.10 0.32 0.37 0.13 0.10 0.01 0.01 0.01 0.07 0.08 0.16 0.27 0.44 0.56 0.27 0.19 0.15 0.17 0.20 0.21 0.38 0.47 0.40 0.17 0.23 0.29 0.37 1.07 2.28 1.86 1.59 1.74 1.98 1.17 1.10 0.75 1.36 0.85 0.90 0.98 1.30
0.26 0.13 0.18 0.20 0.13 0.24 0.15 0.18 0.15 0.07 0.08 0.10 0.16 0.18 0.28 0.07 0.11 0.17 0.04 0.01 0.00 0.00 0.00 0.00 0.00 0.00 0.03 0.00 0.00 0.00 0.00 0.00 0.00 0.00 0.00 0.00 0.00 0.00 0.00 0.00 0.03 0.03 0.08 0.03 0.19 0.03 0.01 0.27 0.13 0.02 0.03 0.08 0.01 0.00 0.00 0.10 0.02 0.08 0.14 0.39 0.37 0.42 0.31 0.30 0.21 0.10 0.17 0.60 0.36 0.46 0.22 0.24 0.24 0.56 1.27 0.73 1.59 1.42 1.29 2.26 2.36 3.02 2.18 1.57 1.98 1.84 1.72 1.47
0.33 0.25 0.23 0.24 0.40 0.23 0.26 0.16 0.13 0.10 0.19 0.22 0.38 0.18 0.15 0.03 0.05 0.03 0.15 0.09 0.01 0.00 0.00 0.00 0.00 0.00 0.00 0.00 0.00 0.00 0.00 0.00 0.00 0.00 0.00 0.00 0.00 0.00 0.00 0.00 0.00 0.13 0.01 0.00 0.03 0.11 0.07 0.39 0.05 0.02 0.03 0.00 0.00 0.00 0.01 0.04 0.08 0.08 0.54 0.25 0.37 0.34 0.17 0.12 0.09 0.06 0.16 0.55 0.36 0.28 0.33 0.38 0.43 0.47 0.76 0.76 0.88 1.85 2.15 2.58 2.92 3.05 2.14 2.61 1.86 2.07 1.59 1.24
0.28 0.17 0.29 0.20 0.29 0.35 0.23 0.24 0.18 0.22 0.49 0.38 0.27 0.05 0.19 0.03 0.00 0.15 0.10 0.17 0.08 0.03 0.01 0.00 0.00 0.00 0.00 0.00 0.00 0.00 0.00 0.01 0.01 0.00 0.00 0.00 0.00 0.00 0.01 0.00 0.00 0.04 0.00 0.00 0.13 0.11 0.58 0.12 0.03 0.02 0.00 0.00 0.01 0.00 0.01 0.03 0.04 0.16 0.16 0.45 0.42 0.10 0.57 0.47 0.06 0.08 0.04 0.45 0.29 0.55 0.43 0.40 0.65 0.61 0.71 0.70 0.60 1.08 2.19 2.40 2.66 4.53 3.58 2.50 2.71 1.72 2.24 1.70
0.24 0.33 0.21 0.32 0.27 0.25 0.26 0.35 0.31 0.40 0.28 0.23 0.13 0.09 0.10 0.03 0.02 0.09 0.17 0.45 0.04 0.02 0.00 0.00 0.00 0.00 0.00 0.00 0.01 0.00 0.00 0.01 0.00 0.02 0.00 0.00 0.00 0.00 0.00 0.00 0.00 0.00 0.02 0.01 0.01 0.01 0.05 0.00 0.00 0.00 0.00 0.00 0.01 0.00 0.00 0.40 0.21 0.07 0.18 0.55 0.13 0.18 0.23 0.56 0.31 0.14 0.06 0.09 0.17 0.22 0.59 0.49 0.34 0.60 0.53 0.71 0.63 0.90 0.75 0.93 1.18 1.21 1.46 1.07 1.19 1.03 1.42 1.61
0.34 0.30 0.43 0.30 0.31 0.31 0.31 0.46 0.30 0.31 0.29 0.38 0.20 0.11 0.09 0.08 0.02 0.12 0.15 0.18 0.05 0.00 0.00 0.00 0.00 0.00 0.00 0.00 0.00 0.00 0.00 0.00 0.00 0.00 0.00 0.00 0.01 0.00 0.00 0.00 0.00 0.01 0.01 0.00 0.00 0.02 0.10 0.01 0.00 0.00 0.00 0.00 0.01 0.04 0.02 0.07 0.46 0.22 0.05 0.12 0.19 0.12 0.25 0.18 0.08 0.29 0.36 0.39 0.24 0.25 0.85 0.96 0.62 0.59 0.61 0.55 0.47 0.37 0.54 0.82 0.93 0.90 0.89 0.58 1.03 1.00 0.59 0.51
0.32 0.29 0.28 0.28 0.27 0.43 0.76 0.52 0.50 0.50 0.35 0.49 0.29 0.16 0.08 0.06 0.05 0.09 0.21 0.35 0.23 0.03 0.00 0.06 0.00 0.04 0.00 0.00 0.00 0.00 0.00 0.01 0.00 0.00 0.00 0.00 0.01 0.00 0.03 0.01 0.00 0.05 0.01 0.00 0.01 0.03 0.01 0.00 0.00 0.00 0.01 0.01 0.01 0.04 0.05 0.03 0.38 0.43 0.36 0.02 0.05 0.05 0.06 0.69 0.45 0.46 0.81 0.92 0.58 0.16 1.42 0.89 0.46 0.68 0.52 0.49 0.40 0.52 0.68 0.84 1.03 1.04 0.66 0.68 0.87 1.06 1.02 0.78
0.22 0.31 0.37 0.29 0.36 0.51 0.34 0.62 0.63 0.41 0.62 0.50 0.38 0.34 0.10 0.21 0.18 0.18 0.72 0.36 0.43 0.06 0.14 0.01 0.02 0.05 0.00 0.06 0.00 0.00 0.53 0.08 0.00 0.00 0.00 0.00 0.01 0.01 0.01 0.01 0.00 0.00 0.01 0.06 0.00 0.09 0.00 0.00 0.00 0.00 0.02 0.02 0.07 0.26 0.10 0.01 0.30 0.72 0.04 0.08 0.05 0.05 0.15 0.25 0.20 0.52 0.47 0.13 0.07 0.05 0.30 0.92 0.89 0.58 0.17 0.31 0.45 0.36 0.70 0.76 0.50 0.64 0.51 0.49 0.71 1.23 1.18 0.51
0.29 0.26 0.27 0.22 0.46 0.48 0.57 0.74 0.48 0.55 0.47 0.45 0.54 0.21 0.24 0.17 0.14 0.64 0.56 0.23 0.30 0.00 0.05 0.00 0.01 0.00 0.01 0.00 0.00 0.01 0.03 0.00 0.05 0.20 0.00 0.00 0.00 0.01 0.00 0.00 0.00 0.00 0.00 0.00 0.46 0.05 0.00 0.01 0.01 0.01 0.01 0.03 0.22 0.04 0.00 0.01 0.16 0.25 0.07 0.02 0.12 0.10 0.14 0.27 0.29 0.56 0.36 0.21 0.50 0.32 0.08 0.51 0.95 0.59 0.14 0.49 0.55 0.50 0.59 0.43 0.36 0.46 0.63 0.78 0.81 0.86 0.77 0.94
0.44 0.27 0.22 0.38 0.54 0.33 0.43 0.73 0.55 0.75 0.46 0.72 0.14 0.28 0.52 0.38 0.16 0.85 0.75 0.38 0.28 0.09 0.04 0.11 0.03 0.01 0.01 0.00 0.04 0.00 0.01 0.01 0.03 0.03 0.00 0.00 0.00 0.01 0.08 0.01 0.00 0.00 0.00 0.00 0.10 0.02 0.01 0.00 0.02 0.01 0.04 0.16 0.01 0.01 0.00 0.00 0.24 0.01 0.01 0.01 0.04 0.04 0.12 0.15 0.39 0.47 0.34 0.53 0.77 0.62 0.32 0.92 1.28 0.60 0.55 0.43 0.62 0.44 0.44 0.42 0.62 0.71 1.17 0.65 0.77 0.45 0.48 0.58
0.38 0.75 0.36 0.77 0.80 0.72 0.62 0.95 0.38 0.46 0.36 0.29 0.59 0.57 0.59 0.40 1.35 1.03 0.82 0.56 0.11 0.32 0.03 0.09 0.10 0.11 0.01 0.04 0.07 0.10 0.11 0.06 0.01 0.07 0.01 0.02 0.03 0.00 0.00 0.00 0.01 0.02 0.05 0.00 0.03 0.01 0.01 0.00 0.00 0.01 0.01 0.00 0.00 0.01 0.00 0.00 0.00 0.01 0.01 0.09 0.16 0.26 0.25 0.26 0.27 0.48 0.50 0.73 0.65 0.33 0.20 0.30 1.21 0.99 0.92 0.73 0.35 0.30 0.34 0.34 0.37 0.39 0.48 0.56 0.65 1.03 0.90 0.37
0.20 0.47 0.76 0.39 0.93 0.56 0.48 0.62 0.53 0.45 0.31 0.28 0.29 0.41 0.49 0.59 0.87 0.58 0.29 0.50 0.05 0.40 0.09 0.05 0.30 0.04 0.19 0.19 0.20 0.09 0.08 0.04 0.08 0.01 0.06 0.01 0.16 0.03 0.06 0.04 0.01 0.02 0.03 0.03 0.12 0.02 0.02 0.04 0.08 0.02 0.00 0.00 0.00 0.00 0.01 0.00 0.00 0.01 0.12 0.13 0.38 0.43 0.31 0.31 0.52 0.36 0.65 0.85 0.20 0.19 0.32 0.24 0.93 1.87 0.72 0.28 0.17 0.25 0.29 0.19 0.27 0.22 0.27 0.41 0.30 0.37 0.27 0.33
0.18 0.27 0.28 0.36 0.42 0.43 0.48 0.67 0.48 0.36 0.33 0.53 0.42 0.52 0.50 0.81 0.68 0.64 0.38 0.02 0.77 0.60 0.36 0.18 0.12 0.14 0.18 0.13 0.13 0.07 0.15 0.22 0.20 0.07 0.11 0.03 0.11 0.39 0.14 0.48 0.18 0.38 0.25 0.22 0.43 0.04 0.13 0.17 0.05 0.03 0.03 0.00 0.01 0.09 0.10 0.00 0.01 0.05 0.14 0.34 1.00 1.09 0.53 0.78 1.03 0.61 0.51 0.78 0.46 0.34 0.13 0.41 0.55 0.80 1.05 0.33 0.25 0.21 0.14 0.26 0.26 0.15 0.15 0.16 0.13 0.15 0.60 0.35
0.12 0.22 0.15 0.09 0.08 0.25 0.16 0.25 0.25 0.27 0.61 0.36 1.04 0.72 0.65 0.67 0.18 0.42 0.67 0.26 0.74 0.51 0.92 0.36 0.38 0.19 0.20 0.16 0.16 0.15 0.13 0.24 0.11 0.17 0.07 0.17 0.14 0.09 0.08 0.14 0.12 0.17 0.63 0.23 0.19 0.22 0.16 0.11 0.03 0.09 0.01 0.01 0.00 0.57 0.25 0.21 0.28 0.26 0.34 0.36 0.76 0.80 0.58 0.32 0.60 0.43 0.66 0.24 0.21 0.55 0.08 0.65 1.05 0.67 0.53 0.57 0.26 0.12 0.11 0.12 0.17 0.09 0.08 0.10 0.12 0.13 0.22 0.27
0.03 0.03 0.08 0.07 0.09 0.05 0.10 0.18 0.77 0.50 0.30 1.04 0.98 0.77 1.75 0.50 0.45 0.19 0.51 0.31 0.87 0.25 0.41 0.53 0.30 0.18 0.50 0.36 0.61 0.56 0.36 0.05 0.21 0.18 0.03 0.11 0.05 0.31 0.15 0.02 0.03 0.06 0.24 0.21 0.38 0.42 0.60 0.80 0.38 0.05 0.42 0.00 0.02 0.05 0.16 0.43 0.09 0.56 0.10 0.31 0.62 0.54 0.66 0.49 0.67 0.61 0.71 0.88 0.46 0.20 0.29 0.94 0.75 3.18 0.64 0.20 0.20 0.09 0.07 0.15 0.11 0.13 0.11 0.21 0.12 0.23 0.29 0.32
0.02 0.03 0.06 0.12 0.11 0.07 0.25 0.10 0.38 0.40 0.63 1.40 0.71 0.66 0.44 0.25 0.54 0.57 0.56 0.68 0.59 0.31 0.47 0.28 0.41 0.19 0.67 0.28 0.43 0.15 0.21 0.59 0.09 0.09 0.11 0.06 0.28 0.19 0.11 0.17 0.09 0.02 0.05 0.30 0.25 0.15 0.19 0.32 0.08 0.01 0.01 0.00 0.04 0.02 0.01 0.07 0.27 0.08 0.22 0.24 0.64 0.77 0.15 0.78 0.66 0.56 0.69 0.55 0.56 0.22 0.39 0.86 1.38 1.26 1.08 0.83 0.14 0.07 0.09 0.10 0.07 0.11 0.13 0.12 0.21 0.20 0.28 0.30
0.02 0.09 0.10 0.25 0.16 0.08 0.06 0.17 0.49 0.28 0.30 0.45 0.72 0.61 0.53 0.45 1.19 0.74 1.09 0.57 0.54 0.99 0.58 0.35 0.45 0.39 0.39 0.56 0.13 0.19 0.08 0.37 0.22 0.08 0.14 0.14 0.14 0.27 0.03 0.06 0.06 0.02 0.16 0.14 0.21 0.35 0.09 0.65 0.01 0.04 0.00 0.01 0.08 0.00 0.04 0.04 1.38 0.65 0.22 0.68 0.35 0.10 0.18 0.39 0.12 0.07 0.04 0.12 0.43 0.24 0.74 0.72 0.26 0.62 0.79 0.67 0.10 0.14 0.15 0.08 0.08 0.31 0.43 0.55 0.67 0.91 0.97 0.95
0.13 0.23 0.35 0.31 0.26 0.17 0.11 0.20 0.29 0.37 0.23 0.45 0.63 0.62 0.45 0.54 0.79 0.79 0.71 0.64 0.76 0.63 0.66 0.83 0.77 0.43 0.46 0.55 0.32 0.10 0.30 0.13 0.29 0.09 0.62 0.19 0.40 0.10 0.06 0.08 0.00 0.03 0.01 0.01 0.35 0.02 0.21 0.62 0.01 0.02 0.12 0.02 0.00 0.00 0.00 0.04 0.01 0.20 0.68 0.28 0.12 0.06 0.13 0.18 0.76 0.23 0.16 0.51 0.40 0.28 0.73 1.26 0.51 2.53 1.01 0.70 0.48 0.49 0.26 0.29 0.47 0.50 0.57 0.67 0.82 0.81 0.91 1.05
0.23 0.34 0.40 0.33 0.30 0.15 0.14 0.21 0.28 0.49 0.46 0.39 0.50 0.36 0.44 0.87 0.54 0.86 0.71 0.47 0.71 0.76 0.87 0.80 0.95 0.35 0.57 0.52 0.54 0.11 0.20 0.36 0.47 0.23 0.60 0.23 0.69 0.04 0.07 0.11 0.04 0.04 0.01 0.03 0.09 0.37 0.09 0.46 0.16 0.01 0.01 0.02 0.01 0.01 0.05 0.02 0.05 0.11 0.38 0.12 0.42 1.11 1.18 0.28 0.11 0.41 0.53 0.28 0.35 0.37 0.48 0.67 0.59 1.58 0.68 1.24 0.93 0.61 0.49 0.36 0.22 0.25 0.19 0.42 0.77 1.02 0.98 0.60
0.37 0.40 0.82 0.28 0.15 0.12 0.18 0.27 0.36 0.78 0.69 0.47 0.62 0.51 0.45 0.73 0.50 0.75 0.57 0.46 0.76 0.88 0.79 1.15 0.97 0.65 0.64 0.64 0.45 0.21 0.20 0.45 0.22 0.93 0.64 0.58 0.73 0.79 0.15 0.03 0.09 0.02 0.02 0.03 0.15 0.12 0.06 0.26 0.31 0.02 0.04 0.15 0.03 0.04 0.32 0.21 0.06 0.04 0.05 0.41 0.24 0.25 0.50 0.73 0.40 0.57 0.39 0.72 0.24 0.82 0.57 1.22 0.73 1.05 0.68 0.77 0.59 0.69 0.59 0.39 0.47 0.43 0.52 0.38 0.40 0.32 0.45 0.45
0.59 0.58 0.87 0.24 0.09 0.19 0.17 0.22 0.38 0.80 0.60 0.47 0.55 0.58 0.60 0.63 0.62 0.53 0.82 0.53 1.18 0.90 1.22 0.84 0.52 0.82 0.37 0.43 0.22 0.41 0.13 0.15 0.24 0.82 0.48 1.13 0.66 0.27 0.38 0.04 0.33 0.09 0.03 0.03 0.14 0.18 0.35 0.09 0.58 0.25 0.04 0.06 0.33 0.10 0.42 0.28 0.33 0.24 0.15 0.42 0.37 0.22 0.25 0.17 0.39 0.33 0.55 0.47 0.50 0.38 0.68 1.29 0.97 0.59 0.46 0.71 0.41 0.33 0.66 0.59 0.52 0.59 0.59 0.74 0.68 0.39 0.43 0.47
0.53 1.06 1.22 0.22 0.19 0.22 0.23 0.48 0.79 0.59 0.41 0.25 0.30 0.61 0.35 0.76 0.64 0.67 0.62 0.52 0.68 0.62 0.82 0.57 0.54 0.71 0.52 0.49 0.60 0.17 0.27 0.21 0.17 0.55 0.37 0.53 0.51 1.05 0.18 0.15 0.06 0.42 0.06 0.11 0.27 0.23 0.23 0.33 0.38 0.25 0.54 0.19 0.14 0.07 0.12 0.20 0.20 0.32 0.22 0.49 0.32 0.59 0.76 0.61 0.76 0.14 0.21 0.37 0.51 0.37 0.83 0.99 0.86 0.47 1.18 0.54 0.28 0.66 0.68 0.74 0.77 0.64 0.52 0.41 0.36 0.51 0.42 0.58
0.60 1.22 1.43 0.37 0.34 0.25 0.42 1.07 0.66 0.40 0.44 0.59 0.65 0.44 0.72 0.50 0.60 0.51 0.58 0.32 0.49 0.66 0.65 0.40 0.31 0.50 0.42 0.49 0.44 0.16 0.24 0.18 0.29 0.40 0.42 0.65 0.36 0.60 0.58 0.03 0.07 0.08 0.26 0.41 0.52 0.36 0.29 0.58 0.70 0.36 0.42 0.74 0.28 0.20 0.11 0.35 0.20 0.23 0.33 0.69 0.40 0.94 0.49 0.91 0.68 0.74 0.33 0.48 0.22 0.65 0.50 1.37 0.82 0.92 0.52 0.64 0.30 0.33 0.69 0.81 1.26 0.68 0.72 0.38 0.26 0.27 0.64 0.54
0.90 2.04 0.84 0.53 0.43 0.46 0.99 1.09 0.54 0.58 0.71 0.43 0.22 0.33 0.37 0.50 0.41 0.31 0.60 0.45 0.72 0.62 0.70 0.50 0.46 0.35 0.44 0.50 0.31 0.37 0.27 0.24 0.22 0.54 0.22 0.26 0.36 0.28 0.09 0.10 0.17 0.11 0.21 0.55 0.18 0.71 0.30 0.51 0.71 0.46 0.22 0.22 0.18 0.09 0.15 0.64 0.23 0.27 0.33 0.27 0.46 0.87 0.87 0.70 0.59 0.78 0.79 0.72 0.86 0.84 0.55 1.51 1.39 1.26 0.73 0.59 0.49 0.38 0.44 1.05 0.70 1.00 0.79 0.59 0.36 0.25 0.25 0.37
1.42 1.39 0.68 0.91 0.83 0.73 1.27 0.91 0.74 0.49 0.50 0.30 0.38 0.69 0.39 0.60 0.39 0.45 0.33 0.63 0.81 0.74 0.93 0.44 0.39 0.41 0.63 0.56 0.43 0.20 0.28 0.42 0.20 0.19 0.35 0.17 0.55 0.18 0.25 0.38 0.12 0.31 0.35 0.80 0.69 0.80 0.88 1.27 0.68 1.13 0.65 0.74 0.62 0.39 0.73 0.41 0.36 0.35 0.61 0.56 0.33 0.59 0.43 0.66 0.58 0.79 0.75 0.62 0.77 0.85 1.23 1.16 1.34 0.84 0.58 0.70 0.48 0.84 0.92 0.93 1.03 1.04 1.04 0.60 0.37 0.21 0.17 0.24
2.18 0.67 0.65 0.87 0.98 1.22 1.43 1.24 1.04 0.67 0.61 0.66 0.60 0.75 0.73 0.51 0.29 0.27 0.34 0.49 0.58 0.63 0.71 0.54 0.44 0.43 0.67 0.57 0.24 0.12 0.17 0.14 0.60 0.40 0.13 0.29 0.53 0.15 0.25 0.44 0.49 0.47 0.39 0.44 0.31 0.53 0.61 1.12 1.14 1.41 1.36 1.42 1.51 1.57 1.64 1.31 1.05 0.62 0.38 0.34 0.28 0.30 0.57 0.66 0.53 0.78 0.68 0.62 0.65 0.93 0.85 0.94 1.07 0.61 0.71 1.05 1.02 1.10 1.24 1.10 0.90 1.05 0.89 0.76 0.98 0.34 0.76 0.53
1.22 0.66 0.48 1.36 1.36 1.64 1.13 1.03 1.24 1.21 0.97 0.95 0.84 0.67 0.60 0.57 0.26 0.39 0.14 0.63 0.30 0.82 0.70 0.56 0.49 0.49 0.53 0.40 0.26 0.22 0.15 0.19 0.30 0.36 0.19 0.36 0.15 0.06 0.11 0.09 0.12 0.19 0.14 0.18 0.28 0.43 0.75 0.88 0.87 1.03 1.32 1.48 1.48 1.30 1.42 0.64 0.84 0.86 0.70 0.42 0.38 0.37 0.57 0.57 0.65 0.73 1.07 0.94 0.71 1.10 1.00 1.02 0.88 0.77 0.56 0.53 0.66 0.62 0.65 0.63 0.91 1.01 1.03 0.65 0.75 1.22 0.88 1.09
0.97 0.71 0.57 0.94 1.40 1.69 1.55 1.11 1.43 1.16 1.49 1.00 0.98 0.74 0.78 0.54 0.50 1.05 0.25 0.43 0.15 0.79 1.08 0.76 0.47 0.50 0.65 0.43 0.41 0.33 0.14 0.11 0.39 0.32 0.30 0.25 0.20 0.12 0.03 0.06 0.14 0.19 0.17 0.24 0.21 0.47 0.63 0.69 0.91 1.44 1.47 1.15 1.05 1.16 1.14 0.80 0.87 0.55 0.41 0.53 0.50 0.39 0.66 0.57 0.57 1.02 0.87 0.72 1.00 0.78 0.72 0.73 1.01 0.70 0.79 0.69 0.63 0.51 0.49 0.49 0.33 0.44 0.65 1.03 1.41 0.66 0.54 0.42
0.98 0.39 0.54 1.07 1.71 1.65 2.09 1.82 1.50 1.65 1.33 1.02 0.82 0.55 0.74 0.58 0.48 0.58 0.18 0.12 0.31 0.58 1.42 0.82 0.90 0.80 1.01 0.80 0.63 0.40 0.18 0.25 0.20 0.24 0.43 0.21 0.28 0.10 0.09 0.05 0.12 0.29 0.29 0.33 0.20 0.43 1.01 0.75 0.85 0.84 1.10 1.18 0.82 0.78 0.79 1.01 0.66 0.47 0.36 0.29 0.87 0.57 0.46 0.68 0.35 0.65 0.86 0.90 1.23 0.92 1.01 0.84 1.00 1.07 0.92 1.05 0.63 0.57 0.67 0.65 0.62 0.49 0.40 0.48 0.78 0.86 0.87 0.88
0.99 0.18 0.76 0.69 1.55 1.48 1.72 1.89 1.89 2.00 1.56 0.93 0.76 0.68 0.71 0.77 0.50 0.27 0.25 0.44 0.58 0.53 0.79 0.62 0.71 1.08 1.09 0.93 0.36 0.29 0.25 0.62 0.23 0.52 0.50 0.63 0.25 0.23 0.33 0.17 0.28 0.19 0.39 0.27 0.31 0.33 0.48 0.48 1.32 0.68 0.84 0.81 0.81 0.72 0.68 0.66 0.60 0.52 0.30 0.30 0.41 0.32 0.44 0.39 0.39 0.57 0.73 0.62 0.62 0.62 0.47 0.47 0.73 0.82 0.77 1.00 0.65 0.52 0.54 0.37 0.32 0.26 0.30 0.26 0.31 0.32 0.59 0.55
0.78 0.71 0.52 0.45 0.85 0.93 1.16 1.45 1.55 1.20 1.08 0.73 0.82 0.63 0.89 0.70 0.60 0.52 0.36 0.41 0.34 0.42 0.23 0.60 0.56 0.74 1.61 1.02 0.65 0.71 0.45 0.87 0.92 0.55 0.55 0.56 0.50 0.30 0.37 0.22 0.66 0.41 0.46 0.88 0.59 0.76 0.47 0.68 0.27 0.72 0.84 0.86 1.08 1.04 0.62 0.43 0.50 0.61 0.32 0.40 0.35 0.38 0.36 0.40 0.37 0.52 0.44 0.43 0.48 0.34 0.59 0.55 0.89 0.63 0.76 1.01 0.52 0.30 0.35 0.57 0.36 0.26 0.26 0.29 0.30 0.29 0.32 0.37
0.88 1.06 0.83 1.42 0.86 0.49 0.88 1.29 1.63 1.20 1.09 0.80 1.16 0.62 0.72 0.48 0.41 0.61 0.40 0.53 0.46 0.53 0.58 0.40 0.45 1.36 0.93 0.86 1.15 1.50 1.08 0.49 0.91 0.36 0.92 0.80 0.52 0.28 0.43 0.37 0.09 0.38 0.50 0.47 0.32 0.88 0.69 0.68 0.39 0.66 1.13 0.85 0.80 0.96 1.55 0.91 0.62 0.80 0.90 0.69 0.69 0.53 0.66 0.68 0.75 0.83 0.70 0.93 1.03 0.89 0.76 1.29 1.02 0.43 0.88 0.59 0.57 0.53 0.59 0.71 0.78 0.76 0.59 0.69 0.60 0.59 0.35 0.32
0.89 0.77 0.67 1.18 0.88 0.27 1.06 1.13 1.44 1.33 0.78 0.86 0.96 0.98 0.74 0.37 0.99 0.18 0.61 0.30 0.37 0.80 0.63 0.24 0.72 1.06 0.45 1.27 1.55 1.05 0.45 0.51 0.50 0.20 0.38 0.29 0.29 0.73 0.03 0.23 0.09 0.20 0.17 0.32 0.45 0.73 0.90 0.77 0.79 0.92 0.89 0.72 0.88 0.75 1.00 0.95 0.96 1.17 1.01 0.89 0.63 0.76 0.77 0.63 0.64 0.57 0.87 0.99 1.25 1.10 1.70 1.19 0.83 0.56 0.60 0.79 0.63 0.69 1.00 0.75 1.06 0.82 0.66 0.71 0.60 0.48 0.45 0.38